Latham, NY

7:16 PM EST on February 06, 2016 (GMT -0500)
Albany International

Weather History for KALB - February, 2014

Change the Weather History Date:

Sunday, February 2, 2014

  Actual Average Record
Temperature  
Mean Temperature 37 °F 23 °F  
Max Temperature 41 °F 32 °F 53 °F (1981)
Min Temperature 32 °F 15 °F -18 °F (1961)
Degree Days  
Heating Degree Days 28 42  
Month to date heating degree days 62 84  
Since 1 July heating degree days 3979 3935  
Cooling Degree Days 0 0  
Month to date cooling degree days 0 0  
Year to date cooling degree days 0 0  
Moisture  
Dew Point 29 °F    
Average Humidity 68    
Maximum Humidity 82    
Minimum Humidity 54    
Precipitation  
Precipitation T in 0.08 in 0.88 in (2015)
Month to date precipitation T 0.16  
Year to date precipitation 2.31 2.75  
Snow  
Snow 0.00 in 0.40 in 11.90 in (2015)
Month to date snowfall T 0.9  
Since 1 July snowfall 37.1 35.6  
Snow Depth 0.00 in    
Sea Level Pressure  
Sea Level Pressure 29.99 in    
Wind  
Wind Speed 8 mph (West)    
Max Wind Speed 17 mph    
Max Gust Speed 24 mph    
Visibility 10 miles    
Events Rain    
T = Trace of Precipitation, MM = Missing Value Source: NWS Daily Summary

Daily Weather History Graph

Daily Weather History Graph

Search for Another Location

Airport or City:

Trip Planner

Search our weather history database for the weather conditions in past years. The results will help you decide how hot, cold, wet, or windy it might be!

Date:

Astronomy

Feb. 02, 2014 Rise Set
Actual Time 7:08 AM EST 5:09 PM EST
Civil Twilight 6:38 AM EST 5:39 PM EST
Nautical Twilight 6:04 AM EST 6:13 PM EST
Astronomical Twilight 5:31 AM EST 6:46 PM EST
Moon 8:28 AM EST (2/2) 8:57 PM EST (2/2)
Length of Visible Light 11h 00m
Length of Day
10h 01m
Waxing Crescent, 11% of the Moon is Illuminated
Feb 2
Waxing Crescent
Feb 6
First Quarter
Feb 14
Full
Feb 22
Last Quarter
Mar 1
New

Hourly Weather History & Observations

Time (EST) Temp. Windchill Dew Point Humidity Pressure Visibility Wind Dir Wind Speed Gust Speed Precip Events Conditions
12:51 AM 39.0 °F 30.6 °F 27.0 °F 62% 29.94 in 10.0 mi South 15.0 mph 24.2 mph N/A   Overcast
1:51 AM 39.0 °F 31.4 °F 28.9 °F 67% 29.92 in 10.0 mi South 12.7 mph 21.9 mph N/A   Overcast
2:51 AM 39.0 °F 32.8 °F 30.0 °F 70% 29.91 in 10.0 mi South 9.2 mph - N/A   Overcast
3:51 AM 39.0 °F 32.8 °F 30.0 °F 70% 29.90 in 10.0 mi South 9.2 mph - N/A   Overcast
4:51 AM 39.0 °F 34.0 °F 30.0 °F 70% 29.90 in 10.0 mi South 6.9 mph - N/A   Overcast
5:51 AM 37.9 °F 31.5 °F 32.0 °F 79% 29.89 in 10.0 mi South 9.2 mph - N/A   Mostly Cloudy
6:51 AM 37.9 °F 34.4 °F 32.0 °F 79% 29.90 in 10.0 mi SSW 4.6 mph - N/A   Mostly Cloudy
7:51 AM 37.9 °F 35.5 °F 32.0 °F 79% 29.90 in 10.0 mi South 3.5 mph - N/A   Mostly Cloudy
8:51 AM 39.0 °F - 32.0 °F 76% 29.94 in 10.0 mi Calm Calm - N/A   Overcast
9:51 AM 39.9 °F - 30.9 °F 70% 29.94 in 10.0 mi Calm Calm - N/A   Overcast
10:51 AM 39.9 °F 36.7 °F 30.9 °F 70% 29.96 in 10.0 mi NNW 4.6 mph - N/A   Overcast
11:51 AM 41.0 °F 37.1 °F 32.0 °F 70% 29.97 in 10.0 mi NNW 5.8 mph - N/A   Overcast
12:51 PM 39.9 °F 36.7 °F 32.0 °F 73% 29.95 in 10.0 mi NNW 4.6 mph - 0.00 in Rain Light Rain
1:51 PM 39.0 °F 32.8 °F 32.0 °F 76% 29.96 in 10.0 mi WNW 9.2 mph - 0.00 in   Overcast
2:51 PM 37.9 °F 32.1 °F 30.9 °F 76% 29.98 in 10.0 mi NW 8.1 mph - N/A   Overcast
3:51 PM 37.0 °F 29.3 °F 30.0 °F 76% 30.01 in 10.0 mi NW 11.5 mph - N/A   Overcast
4:51 PM 37.0 °F 31.6 °F 28.0 °F 70% 30.02 in 10.0 mi NW 6.9 mph - N/A   Overcast
5:51 PM 36.0 °F 28.5 °F 27.0 °F 70% 30.04 in 10.0 mi WNW 10.4 mph - N/A   Overcast
6:51 PM 36.0 °F 28.5 °F 27.0 °F 70% 30.07 in 10.0 mi WNW 10.4 mph - N/A   Overcast
7:51 PM 35.1 °F 26.4 °F 26.1 °F 70% 30.08 in 10.0 mi WNW 12.7 mph - N/A   Overcast
8:51 PM 33.1 °F 23.9 °F 25.0 °F 72% 30.09 in 10.0 mi West 12.7 mph - N/A   Mostly Cloudy
9:51 PM 33.1 °F 23.9 °F 24.1 °F 70% 30.13 in 10.0 mi West 12.7 mph 21.9 mph N/A   Mostly Cloudy
10:51 PM 33.1 °F 24.4 °F 23.0 °F 66% 30.13 in 10.0 mi West 11.5 mph - N/A   Overcast
11:51 PM 32.0 °F 21.6 °F 23.0 °F 69% 30.15 in 10.0 mi West 15.0 mph - N/A   Overcast